Location: Morlupo
(42.1333°N, 12.5000°E)
Time: 09:31:45
(UTC+00:00)

Ariane Rocket - Visible Passes

Search period start: 17 January 2021 00:00
Search period end: 27 January 2021 00:00
Orbit: 760 x 770 km, 98.7° (Epoch: 16 January)

Date Brightness Start Highest point End Pass type
(mag) Time Alt. Az. Time Alt. Az. Time Alt. Az.
24 Jan 5.5 19:00:51 11° N 19:00:51 11° N 19:01:04 10° N visible
25 Jan 5.2 18:23:26 12° N 18:23:26 12° N 18:23:49 10° N visible
26 Jan 5.6 19:26:14 11° NNW 19:26:14 11° NNW 19:26:29 10° NNW visible
